Location: Newark
(43.4306°N, 0.3089°E)
Time: 20:06:50
(UTC+00:00)

S-56A Canister/Altair - Pass Details

Date: 26 August 2019
Orbit: 633 x 2499 km, 38.9° (Epoch: 14 September)

Event Time Altitude Azimuth Distance (km) Brightness Sun altitude
Rises 22:00:05 0° 263° (W) 3,172 11.0 -29.7°
Reaches altitude 10° 22:02:41 10° 257° (WSW) 2,123 10.0 -30.0°
Enters shadow 22:03:35 15° 254° (WSW) 1,775 9.5 -30.1°
Maximum altitude 22:07:10 48° 183° (S) 825 - -30.4°
Drops below altitude 10° 22:11:30 10° 109° (ESE) 2,048 - -30.8°
Sets 22:13:58 0° 103° (ESE) 3,046 - -31.1°
